AUA9E EDDH-LOWW

Flight info

Callsign AUA9E
Flight time N/A
Altitude 35000
Route AMLUH2G AMLUH M852 DENIX DCT ZUCKA DCT OMELO DCT EVIKU DCT BITSI DCT MIKOV MIKOV8W
Aircraft A20N/M-SDE2E3FGHIRWXY/LB1

Departure

Time 2026-04-22 18:03
Airport Hamburg Helmut Schmidt Airport (EDDH)

Arrival

Time N/A
Airport Vienna International Airport (LOWW)
Time Latitude Longitude Altitude Speed Heading
2026-04-22 17:39 53.63416 10.00342 41 ft 0 kts 85°
2026-04-22 17:53 53.63414 10.00311 49 ft 4 kts 85°
2026-04-22 17:53 53.63412 10.00262 45 ft 4 kts 85°
2026-04-22 17:53 53.63411 10.00233 46 ft 2 kts 113°
2026-04-22 17:53 53.63416 10.00221 44 ft 1 kts 160°
2026-04-22 17:54 53.63417 10.00220 44 ft 0 kts 166°
2026-04-22 17:57 53.63405 10.00212 47 ft 6 kts 207°
2026-04-22 17:58 53.63348 10.00160 50 ft 1 kts 199°
2026-04-22 17:58 53.63323 10.00167 50 ft 6 kts 175°
2026-04-22 17:58 53.63258 10.00175 50 ft 12 kts 176°
2026-04-22 17:58 53.63165 10.00186 47 ft 14 kts 176°
2026-04-22 17:59 53.63085 10.00194 49 ft 3 kts 180°
2026-04-22 17:59 53.63078 10.00187 50 ft 5 kts 204°
2026-04-22 17:59 53.63033 10.00142 50 ft 10 kts 214°
2026-04-22 17:59 53.62967 10.00072 50 ft 11 kts 211°
2026-04-22 18:00 53.62931 10.00033 50 ft 6 kts 217°
2026-04-22 18:00 53.62916 9.99992 48 ft 4 kts 246°
2026-04-22 18:00 53.62900 9.99929 49 ft 7 kts 247°
2026-04-22 18:00 53.62875 9.99841 47 ft 9 kts 243°
2026-04-22 18:01 53.62861 9.99793 46 ft 1 kts 250°
2026-04-22 18:01 53.62867 9.99762 49 ft 4 kts 298°
2026-04-22 18:01 53.62892 9.99720 49 ft 5 kts 325°
2026-04-22 18:01 53.62907 9.99707 49 ft 0 kts 333°
2026-04-22 18:02 53.62942 9.99678 49 ft 27 kts 334°
2026-04-22 18:02 53.63318 9.99353 49 ft 92 kts 333°
2026-04-22 18:03 53.64047 9.98727 51 ft 139 kts 333°
2026-04-22 18:03 53.64933 9.97983 552 ft 141 kts 331°
2026-04-22 18:03 53.65821 9.97262 1176 ft 142 kts 333°
2026-04-22 18:03 53.66718 9.96535 1750 ft 148 kts 332°
2026-04-22 18:04 53.67694 9.95678 2065 ft 169 kts 332°
2026-04-22 18:04 53.68842 9.94875 2422 ft 189 kts 345°
2026-04-22 18:04 53.70212 9.94637 2850 ft 205 kts 359°
2026-04-22 18:04 53.71647 9.94680 3706 ft 206 kts 359°
2026-04-22 18:05 53.73064 9.95139 4627 ft 210 kts 21°
2026-04-22 18:05 53.74249 9.96606 5550 ft 217 kts 48°
2026-04-22 18:05 53.74899 9.98926 6433 ft 225 kts 77°
2026-04-22 18:05 53.74771 10.01598 7259 ft 235 kts 108°
2026-04-22 18:06 53.74345 10.03301 7817 ft 239 kts 113°
2026-04-22 18:06 53.73218 10.06618 8708 ft 258 kts 117°
2026-04-22 18:06 53.72282 10.09351 9172 ft 279 kts 117°
2026-04-22 18:06 53.71294 10.12275 9801 ft 292 kts 117°
2026-04-22 18:07 53.70609 10.14313 10125 ft 295 kts 117°
2026-04-22 18:07 53.69597 10.17325 10429 ft 297 kts 118°
2026-04-22 18:07 53.68224 10.20052 10659 ft 325 kts 141°
2026-04-22 18:07 53.66143 10.21821 10990 ft 348 kts 162°
2026-04-22 18:08 53.63785 10.22888 11752 ft 352 kts 165°
2026-04-22 18:08 53.61396 10.23891 12610 ft 355 kts 164°
2026-04-22 18:08 53.58988 10.24920 13452 ft 358 kts 163°
2026-04-22 18:08 53.56533 10.25831 14257 ft 362 kts 166°
2026-04-22 18:09 53.54059 10.26734 14988 ft 365 kts 166°
2026-04-22 18:09 53.51564 10.27650 15724 ft 369 kts 166°
2026-04-22 18:09 53.49041 10.28563 16426 ft 372 kts 166°
2026-04-22 18:09 53.46495 10.29471 17134 ft 376 kts 166°
2026-04-22 18:10 53.43923 10.30379 17834 ft 379 kts 166°
2026-04-22 18:10 53.41326 10.31291 18532 ft 383 kts 166°
2026-04-22 18:10 53.38741 10.32195 19136 ft 385 kts 166°
2026-04-22 18:10 53.36105 10.33115 19781 ft 387 kts 166°
2026-04-22 18:11 53.33464 10.34035 20418 ft 389 kts 166°
2026-04-22 18:11 53.30803 10.34962 21041 ft 391 kts 166°
2026-04-22 18:11 53.28131 10.35891 21664 ft 393 kts 166°
2026-04-22 18:11 53.25444 10.36824 22258 ft 396 kts 166°
2026-04-22 18:12 53.22735 10.37763 22875 ft 398 kts 166°
2026-04-22 18:12 53.20017 10.38704 23476 ft 400 kts 166°
2026-04-22 18:12 53.17279 10.39651 24026 ft 403 kts 166°
2026-04-22 18:12 53.14523 10.40602 24245 ft 405 kts 166°
2026-04-22 18:13 53.11767 10.41553 24309 ft 405 kts 166°
2026-04-22 18:13 53.09006 10.42503 24315 ft 405 kts 166°
2026-04-22 18:13 53.06252 10.43450 24314 ft 404 kts 166°
2026-04-22 18:13 53.03495 10.44397 24319 ft 405 kts 166°
2026-04-22 18:14 53.00742 10.45342 24323 ft 406 kts 166°
2026-04-22 18:14 52.97993 10.46284 24646 ft 408 kts 166°
2026-04-22 18:14 52.95216 10.47233 25244 ft 407 kts 165°
2026-04-22 18:14 52.92433 10.48182 25722 ft 409 kts 165°
2026-04-22 18:15 52.89637 10.49137 26176 ft 412 kts 165°
2026-04-22 18:15 52.86822 10.50096 26643 ft 414 kts 165°
2026-04-22 18:15 52.83996 10.51058 27103 ft 416 kts 165°
2026-04-22 18:15 52.81155 10.52023 27530 ft 418 kts 164°
2026-04-22 18:16 52.78287 10.52997 27945 ft 420 kts 164°
2026-04-22 18:16 52.75411 10.53972 28367 ft 422 kts 164°
2026-04-22 18:16 52.72528 10.54947 28767 ft 424 kts 164°
2026-04-22 18:16 52.69630 10.55926 29154 ft 426 kts 164°
2026-04-22 18:17 52.66722 10.56908 29519 ft 428 kts 164°
2026-04-22 18:17 52.63834 10.57881 29886 ft 430 kts 164°
2026-04-22 18:17 52.60891 10.58871 30259 ft 432 kts 164°
2026-04-22 18:17 52.57942 10.59862 30588 ft 433 kts 164°
2026-04-22 18:18 52.54981 10.60856 30891 ft 436 kts 163°
2026-04-22 18:18 52.52003 10.61854 31171 ft 438 kts 163°
2026-04-22 18:18 52.49011 10.62856 31464 ft 439 kts 163°
2026-04-22 18:18 52.46017 10.63855 31855 ft 439 kts 163°
2026-04-22 18:19 52.43022 10.64853 32253 ft 439 kts 163°
2026-04-22 18:19 52.40033 10.65848 32627 ft 438 kts 163°
2026-04-22 18:19 52.37048 10.66841 33002 ft 437 kts 163°
2026-04-22 18:19 52.34059 10.67834 33359 ft 437 kts 163°
2026-04-22 18:20 52.31084 10.68822 33704 ft 437 kts 162°
2026-04-22 18:20 52.28102 10.69810 34062 ft 436 kts 162°
2026-04-22 18:20 52.25128 10.70794 34285 ft 436 kts 162°
2026-04-22 18:20 52.22150 10.71780 34476 ft 437 kts 162°
2026-04-22 18:21 52.19159 10.72768 34705 ft 438 kts 163°
2026-04-22 18:21 52.16166 10.73756 34908 ft 439 kts 163°
2026-04-22 18:21 52.13202 10.74732 35105 ft 441 kts 163°
2026-04-22 18:21 52.10189 10.75723 35292 ft 443 kts 163°
2026-04-22 18:22 52.07165 10.76716 35331 ft 443 kts 163°
2026-04-22 18:22 52.01128 10.78692 35317 ft 442 kts 163°
2026-04-22 18:23 51.95083 10.80669 35324 ft 443 kts 163°
2026-04-22 18:23 51.89024 10.82645 35330 ft 444 kts 163°
2026-04-22 18:24 51.79935 10.85667 35325 ft 441 kts 158°
2026-04-22 18:24 51.74674 10.90242 35327 ft 425 kts 133°
2026-04-22 18:25 51.72738 10.93700 35314 ft 418 kts 121°
2026-04-22 18:25 51.71352 10.97773 35318 ft 413 kts 109°
2026-04-22 18:25 51.70369 11.02115 35314 ft 412 kts 107°
2026-04-22 18:26 51.67293 11.15087 35327 ft 414 kts 110°
2026-04-22 18:26 51.64981 11.23595 35334 ft 415 kts 111°
2026-04-22 18:27 51.62624 11.32077 35326 ft 415 kts 111°
2026-04-22 18:27 51.60273 11.40508 35325 ft 412 kts 111°
2026-04-22 18:28 51.57923 11.48919 35323 ft 412 kts 111°
2026-04-22 18:28 51.55569 11.57317 35320 ft 412 kts 111°
2026-04-22 18:29 51.53207 11.65714 35322 ft 412 kts 111°
2026-04-22 18:29 51.50844 11.74081 35322 ft 411 kts 111°
2026-04-22 18:30 51.47304 11.86561 35312 ft 411 kts 111°
2026-04-22 18:31 51.44929 11.94894 35304 ft 410 kts 111°
2026-04-22 18:31 51.42552 12.03208 35297 ft 410 kts 111°
2026-04-22 18:32 51.40169 12.11514 35290 ft 410 kts 111°
2026-04-22 18:32 51.37784 12.19798 35287 ft 409 kts 111°
2026-04-22 18:33 51.35393 12.28069 35288 ft 409 kts 111°
2026-04-22 18:33 51.33002 12.36317 35292 ft 409 kts 111°
2026-04-22 18:34 51.30614 12.44524 35299 ft 409 kts 111°
2026-04-22 18:34 51.28209 12.52766 35304 ft 409 kts 111°
2026-04-22 18:35 51.25798 12.60993 35305 ft 409 kts 111°
2026-04-22 18:35 51.23399 12.69157 35314 ft 409 kts 111°
2026-04-22 18:36 51.20976 12.77371 35316 ft 409 kts 111°
2026-04-22 18:36 51.18549 12.85570 35318 ft 409 kts 111°
2026-04-22 18:37 51.16115 12.93769 35304 ft 409 kts 112°
2026-04-22 18:37 51.14086 13.00581 35314 ft 409 kts 112°
2026-04-22 18:38 51.11227 13.10147 35308 ft 409 kts 112°
2026-04-22 18:38 51.08773 13.18323 35307 ft 409 kts 112°
2026-04-22 18:39 51.05096 13.30529 35295 ft 409 kts 112°
2026-04-22 18:39 51.02630 13.38679 35296 ft 409 kts 112°
2026-04-22 18:40 51.00158 13.46824 35281 ft 409 kts 112°
2026-04-22 18:40 50.97702 13.54888 35288 ft 408 kts 112°
2026-04-22 18:41 50.95221 13.63007 35271 ft 408 kts 112°
2026-04-22 18:41 50.92739 13.71101 35274 ft 408 kts 112°
2026-04-22 18:42 50.90254 13.79182 35276 ft 407 kts 112°
2026-04-22 18:42 50.87767 13.87237 35273 ft 407 kts 112°
2026-04-22 18:43 50.85221 13.95182 35274 ft 409 kts 116°
2026-04-22 18:43 50.81863 14.02533 35267 ft 416 kts 126°
2026-04-22 18:44 50.77671 14.08921 35264 ft 420 kts 132°
2026-04-22 18:44 50.73350 14.15145 35260 ft 421 kts 132°
2026-04-22 18:45 50.69024 14.21379 35260 ft 421 kts 132°
2026-04-22 18:45 50.64690 14.27603 35262 ft 422 kts 132°
2026-04-22 18:46 50.60342 14.33827 35261 ft 422 kts 132°
2026-04-22 18:46 50.56014 14.40007 35264 ft 423 kts 132°
2026-04-22 18:47 50.51641 14.46235 35258 ft 423 kts 132°
2026-04-22 18:47 50.47264 14.52452 35259 ft 424 kts 132°
2026-04-22 18:48 50.42951 14.58752 35259 ft 423 kts 130°
2026-04-22 18:48 50.38746 14.65219 35260 ft 423 kts 130°
2026-04-22 18:49 50.34536 14.71640 35260 ft 424 kts 130°
2026-04-22 18:49 50.30291 14.78057 35263 ft 425 kts 130°
2026-04-22 18:50 50.26031 14.84471 35264 ft 425 kts 130°
2026-04-22 18:50 50.21878 14.90708 35262 ft 425 kts 130°
2026-04-22 18:51 50.18326 14.96030 35261 ft 426 kts 130°
2026-04-22 18:51 50.13341 15.03480 35256 ft 426 kts 130°
2026-04-22 18:52 50.09797 15.08758 35071 ft 417 kts 130°
2026-04-22 18:52 50.07724 15.11832 34453 ft 407 kts 130°
2026-04-22 18:52 50.05649 15.14921 32631 ft 422 kts 130°
2026-04-22 18:53 50.03566 15.18014 32718 ft 395 kts 130°
2026-04-22 18:53 50.01578 15.20941 32589 ft 393 kts 130°
2026-04-22 18:53 49.99543 15.23977 31289 ft 415 kts 130°
2026-04-22 18:53 49.97577 15.26962 32315 ft 388 kts 129°
2026-04-22 18:54 49.95622 15.29951 31982 ft 404 kts 130°
2026-04-22 18:54 49.93533 15.33030 31674 ft 419 kts 131°
2026-04-22 18:54 49.91400 15.36113 31243 ft 420 kts 131°
2026-04-22 18:54 49.89280 15.39177 31229 ft 415 kts 131°
2026-04-22 18:55 49.85041 15.45360 31231 ft 419 kts 130°
2026-04-22 18:55 49.80839 15.51510 31233 ft 418 kts 130°
2026-04-22 18:56 49.76601 15.57706 31235 ft 418 kts 130°
2026-04-22 18:56 49.72363 15.63884 31240 ft 418 kts 130°
2026-04-22 18:57 49.68129 15.70042 31245 ft 418 kts 130°
2026-04-22 18:57 49.63911 15.76161 31247 ft 418 kts 130°
2026-04-22 18:58 49.59678 15.82282 30925 ft 417 kts 130°
2026-04-22 18:58 49.57560 15.85342 30396 ft 414 kts 130°
2026-04-22 18:58 49.55490 15.88317 29875 ft 404 kts 130°
2026-04-22 18:59 49.53422 15.91299 29002 ft 407 kts 130°
2026-04-22 18:59 49.51382 15.94232 28523 ft 398 kts 130°
2026-04-22 18:59 49.49338 15.97177 27536 ft 406 kts 131°
2026-04-22 18:59 49.47300 16.00104 27041 ft 396 kts 131°
2026-04-22 19:00 49.45272 16.03015 26179 ft 400 kts 131°
2026-04-22 19:00 49.43255 16.05901 25691 ft 392 kts 131°
2026-04-22 19:00 49.41238 16.08792 24855 ft 400 kts 131°
2026-04-22 19:00 49.39226 16.11665 24410 ft 391 kts 131°
2026-04-22 19:01 49.37213 16.14543 23554 ft 398 kts 131°
2026-04-22 19:01 49.35112 16.17269 22920 ft 397 kts 140°
2026-04-22 19:01 49.32635 16.19229 22060 ft 403 kts 158°
2026-04-22 19:01 49.29976 16.20325 21997 ft 388 kts 160°
2026-04-22 19:02 49.27373 16.21383 21449 ft 390 kts 160°
2026-04-22 19:02 49.24690 16.22479 20389 ft 404 kts 160°
2026-04-22 19:02 49.22047 16.23531 19957 ft 390 kts 161°
2026-04-22 19:02 49.19409 16.24535 19147 ft 387 kts 162°
2026-04-22 19:03 49.16794 16.25498 18468 ft 388 kts 162°
2026-04-22 19:03 49.14208 16.26441 17594 ft 382 kts 162°
2026-04-22 19:03 49.11578 16.27453 16527 ft 394 kts 162°
2026-04-22 19:03 49.08921 16.28534 15743 ft 395 kts 161°
2026-04-22 19:04 49.06266 16.29679 14763 ft 400 kts 161°
2026-04-22 19:04 49.03570 16.30724 13967 ft 396 kts 165°
2026-04-22 19:04 49.00919 16.31609 13378 ft 374 kts 165°
2026-04-22 19:04 48.98471 16.32412 13169 ft 348 kts 165°
2026-04-22 19:05 48.96205 16.33160 13314 ft 304 kts 165°
2026-04-22 19:05 48.94049 16.33895 13225 ft 331 kts 164°
2026-04-22 19:05 48.91667 16.34750 12522 ft 356 kts 164°